This is the latest recevied weather packets stored in our database for station/object KA3WVU. If no packets are shown the sender has not sent any weather packets the latest 10 day(s).
| Time | Temp. | Humidity | Pressure | Rain* | Wind** | Luminosity | Snow |
|---|---|---|---|---|---|---|---|
| 1777921618 | 20° C | 41% | 1008.5 hPa | 0 mm | - | 414 W/m² | - |
| 1777921314 | 20° C | 40% | 1008.6 hPa | 0 mm | - | 647 W/m² | - |
| 1777921011 | 20.56° C | 38% | 1008.4 hPa | 0 mm | - | 642 W/m² | - |
| 1777920707 | 20° C | 39% | 1008.6 hPa | 0 mm | - | 533 W/m² | - |
| 1777920404 | 20° C | 38% | 1008.8 hPa | 0 mm | - | 689 W/m² | - |
| 1777920099 | 20.56° C | 37% | 1008.9 hPa | 0 mm | - | 496 W/m² | - |
| 1777919797 | 19.44° C | 40% | 1008.8 hPa | 0 mm | - | 629 W/m² | - |
| 1777919494 | 20.56° C | 38% | 1008.6 hPa | 0 mm | - | 507 W/m² | - |
| 1777919191 | 20.56° C | 38% | 1008.9 hPa | 0 mm | - | 605 W/m² | - |
| 1777918888 | 20° C | 37% | 1008.7 hPa | 0 mm | - | 693 W/m² | - |
| 1777918586 | 20° C | 39% | 1008.9 hPa | 0 mm | - | 676 W/m² | - |
| 1777918283 | 19.44° C | 38% | 1009.1 hPa | 0 mm | - | 301 W/m² | - |
| 1777917982 | 20.56° C | 39% | 1009.3 hPa | 0 mm | - | 494 W/m² | - |
| 1777917681 | 20° C | 38% | 1009.3 hPa | 0 mm | - | 640 W/m² | - |
| 1777917377 | 20° C | 40% | 1009.3 hPa | 0 mm | - | 519 W/m² | - |
| 1777917074 | 20° C | 40% | 1009.1 hPa | 0 mm | - | 580 W/m² | - |
| 1777916772 | 20° C | 43% | 1009.1 hPa | 0 mm | - | 576 W/m² | - |
| 1777916468 | 20° C | 41% | 1009.3 hPa | 0 mm | - | 573 W/m² | - |
| 1777916165 | 19.44° C | 41% | 1009.5 hPa | 0 mm | - | 431 W/m² | - |
| 1777915863 | 20° C | 42% | 1009.5 hPa | 0 mm | - | 635 W/m² | - |
| 1777915559 | 18.89° C | 42% | 1009.4 hPa | 0 mm | - | 532 W/m² | - |
| 1777915256 | 18.33° C | 43% | 1009.4 hPa | 0 mm | - | 128 W/m² | - |
| 1777914952 | 18.89° C | 42% | 1009.5 hPa | 0 mm | - | 155 W/m² | - |
| 1777914649 | 18.33° C | 43% | 1009.5 hPa | 0 mm | - | 141 W/m² | - |
| 1777914345 | 18.33° C | 44% | 1009.6 hPa | 0 mm | - | 827 W/m² | - |
* Rain latest hour (hover to see other rain measurements)
** Current wind speed in m/s (hover to see current wind gust speed)